Notices

What's New in latest Release from April 7th, 2021:

- Updated Glossary, including Speed of Maximum Gust, and Total Hourly Precipitation

- Updated national and regional climate services offices contacts and prices information

- Addition of station inventory lists for 1981-2010, 1971-2000, and 1961-1990 Normals.

If you haven't already, please take our survey and provide feedback about our website: https://eccc.sondage-survey.ca/f/LanguageSelection.aspx?s=442ca660-fcf1-47c0-95a9-59707d6fd709

Hourly Data Report for April 02, 2021

OTTAWA INTL A
ONTARIO
Current Station Operator: NAVCAN

45°19'00.000" N
75°40'00.000" W
114.90 m
6106001
71628
YOW

Download Data

Hourly Data (April 2021)
Hourly Data Report for April 2, 2021
TIME
LST
Temp Definition
°C
Dew Point Definition
°C
Rel Hum Definition
%
Precip. Amount Definition
mm

Wind Dir Definition
10's deg

Wind Spd Definition
km/h
Visibility Definition
km
Stn Press Definition
kPa
Hmdx Definition


Wind Chill Definition


Weather Definition


00:00 -4.9 -14.1 49   33 24 24.1 100.72   -12 LegendNANA
01:00 -5.3 -14.7 48   34 23 24.1 100.72   -12 Mainly Clear
02:00 -5.5 -17.0 40   35 27 24.1 100.77   -13 LegendNANA
03:00 -5.9 -17.6 40   35 28 24.1 100.81   -14 LegendNANA
04:00 -6.3 -17.7 41   34 23 24.1 100.86   -14 Clear
05:00 -6.8 -16.7 46   34 20 24.1 100.94   -14 LegendNANA
06:00 -7.2 -17.0 46   32 27 24.1 101.02   -15 LegendNANA
07:00 -6.3 -17.0 43   32 30 24.1 101.08   -15 Clear
08:00 -5.3 -17.4 38   32 34 24.1 101.08   -14 LegendNANA
09:00 -3.9 -17.6 34   34 32 24.1 101.11   -12 LegendNANA
10:00 -2.1 -17.9 29   33 30 24.1 101.09   -9 Clear
11:00 -1.0 -18.6 25   32 30 24.1 101.06   -8 LegendNANA
12:00 0.3 -18.6 23   32 29 24.1 101.03     LegendNANA
13:00 1.7 -18.3 21   30 26 24.1 100.97     Clear
14:00 2.5 -18.9 19   32 27 24.1 100.92     LegendNANA
15:00 3.3 -18.9 18   31 30 24.1 100.88     LegendNANA
16:00 2.9 -18.6 19   33 33 24.1 100.90     Mainly Clear
17:00 2.6 -18.8 19   34 28 24.1 100.93     LegendNANA
18:00 1.6 -18.9 20   31 25 24.1 100.95     LegendNANA
19:00 0.3 -18.6 23   34 19 24.1 100.99     Clear
20:00 -0.5 -17.6 26   33 14 24.1 101.04   -5 LegendNANA
21:00 -2.7 -16.4 34   32 10 24.1 101.06   -7 LegendNANA
22:00 -3.2 -16.1 37   32 9 24.1 101.07   -7 Clear
23:00 -3.5 -15.0 41   29 10 24.1 101.05   -7 LegendNANA

Notes on Data Quality.

Legend

  • E = Estimated
  • M = Missing
  • NA = Not Available*
  • [empty] = Indicates an unobserved value
Date modified: